Regional Weather Roundup
Issued by NWS

Home | Current Version | Previous Version | Graphics & Text | Print | Product List | Glossary On
Versions: 1 2 3 4 5 6 7 8 9 10 11 12 13 14 15 16 17 18 19 20 21 22 23 24 25 26 27 28
000
ASUS45 KCYS 221810
RWRWY

WYOMING REGIONAL WEATHER ROUNDUP
NATIONAL WEATHER SERVICE CHEYENNE WY
1200 PM MDT TUE AUG 22 2017

NOTE:  "FAIR" INDICATES FEW OR NO CLOUDS BELOW 12,000 FEET
WITH NO SIGNIFICANT WEATHER AND/OR OBSTRUCTIONS TO VISIBILITY.

WYZ001-221900-
YELLOWSTONE NATIONAL PARK

CITY           SKY/WX    TMP DP  RH WIND       PRES   REMARKS
LK YELLOWSTONE   N/A     60  44  55 E3        30.45F
6HR MIN TEMP:  34; 6HR MAX TEMP:  62;

W YELLOWSTONE  NOT AVBL

$$
WYZ002>013-054>058-071-098>099-221900-
NORTHERN WYOMING

CITY           SKY/WX    TMP DP  RH WIND       PRES   REMARKS
JACKSON        FAIR      67  34  29 CALM      30.37F
CODY           FAIR      77  35  21 SE5       30.25F HAZE
GREYBULL       FAIR      78  34  20 VRB3      30.19F
6HR MIN TEMP:  49; 6HR MAX TEMP:  79;

WORLAND        FAIR      77  36  22 VRB3      30.21F
6HR MIN TEMP:  44; 6HR MAX TEMP:  77;

SHERIDAN       FAIR      82  37  20 NE7       30.20F
6HR MIN TEMP:  43; 6HR MAX TEMP:  82;

BUFFALO        FAIR      82  29  14 N9        30.26S
6HR MIN TEMP:  54; 6HR MAX TEMP:  82;

GILLETTE       FAIR      80  39  23 E8        30.22F
6HR MIN TEMP:  57; 6HR MAX TEMP:  80;

HULETT         FAIR      77  43  29 SW12      30.24F
NEWCASTLE      FAIR      75  39  27 SE13G23   30.26F

$$
WYZ014>020-022>026-101>103-221900-
CENTRAL WYOMING

CITY           SKY/WX    TMP DP  RH WIND       PRES   REMARKS
BIG PINEY      FAIR      74  25  16 CALM      30.40F
6HR MIN TEMP:  32; 6HR MAX TEMP:  74;

PINEDALE       FAIR      73  23  15 CALM      30.40F
DUBOIS         FAIR      73  27  17 N6        30.37F
LANDER           N/A    N/A N/A N/A MISG      30.28F
RIVERTON       FAIR      73  39  29 CALM      30.29F
6HR MIN TEMP:  49; 6HR MAX TEMP:  74;

CASPER         FAIR      77  43  29 SW10      30.28F
6HR MIN TEMP:  44; 6HR MAX TEMP:  78;

DOUGLAS        FAIR      75  48  38 VRB5      30.27F
6HR MIN TEMP:  54; 6HR MAX TEMP:  75;


$$
WYZ021-027>030-104>119-221900-
SOUTHERN WYOMING

CITY           SKY/WX    TMP DP  RH WIND       PRES   REMARKS
EVANSTON       PTSUNNY   78  34  20 SW8       30.40S
6HR MIN TEMP:  52; 6HR MAX TEMP:  79;

KEMMERER         N/A     79  27  14 W13       30.41F
FORT BRIDGER   FAIR      79  28  15 NW6       30.42S
ROCK SPRINGS   FAIR      78  29  16 W9        30.37F
6HR MIN TEMP:  51; 6HR MAX TEMP:  78;

RAWLINS        NOT AVBL
SARATOGA       FAIR      77  36  22 N9        30.39S
LARAMIE        FAIR      76  37  24 VRB6      30.38F
6HR MIN TEMP:  51; 6HR MAX TEMP:  77;

CHEYENNE       PTSUNNY   66  54  65 S17G25    30.36F
6HR MIN TEMP:  57; 6HR MAX TEMP:  68;

TORRINGTON     PTSUNNY   79  54  41 S14       30.24F
6HR MIN TEMP:  49; 6HR MAX TEMP:  79;

PINE BLUFFS    FAIR      72  48  43 S10G21    30.33F

$$




USA.gov is the U.S. government's official web portal to all federal, state and local government web resources and services.